TimeEST,TemperatureF,Dew PointF,Humidity,Sea Level PressureIn,VisibilityMPH,Wind Direction,Wind SpeedMPH,Gust SpeedMPH,PrecipitationIn,Events,Conditions,WindDirDegrees,DateUTC
12:53 AM,28.0,18.0,66,30.12,10.0,West,4.6,-,N/A,,Clear,280,2013-02-25 05:53:00
1:53 AM,26.1,18.0,71,30.13,10.0,Calm,Calm,-,N/A,,Clear,0,2013-02-25 06:53:00
2:53 AM,25.0,18.0,75,30.13,10.0,WNW,4.6,-,N/A,,Clear,290,2013-02-25 07:53:00
3:53 AM,25.0,17.1,72,30.14,10.0,Calm,Calm,-,N/A,,Clear,0,2013-02-25 08:53:00
4:53 AM,23.0,17.1,78,30.14,10.0,WNW,3.5,-,N/A,,Clear,290,2013-02-25 09:53:00
5:53 AM,24.1,17.1,75,30.16,10.0,Calm,Calm,-,N/A,,Clear,0,2013-02-25 10:53:00
6:53 AM,25.0,18.0,75,30.18,10.0,WNW,4.6,-,N/A,,Clear,300,2013-02-25 11:53:00
7:53 AM,28.0,19.0,69,30.19,10.0,Calm,Calm,-,N/A,,Clear,0,2013-02-25 12:53:00
8:53 AM,34.0,19.9,56,30.21,10.0,Variable,3.5,-,N/A,,Clear,0,2013-02-25 13:53:00
9:53 AM,36.0,19.9,52,30.21,10.0,North,5.8,-,N/A,,Clear,350,2013-02-25 14:53:00
10:53 AM,37.0,19.9,50,30.22,10.0,Calm,Calm,-,N/A,,Clear,0,2013-02-25 15:53:00
11:53 AM,41.0,21.9,47,30.21,10.0,Calm,Calm,-,N/A,,Clear,0,2013-02-25 16:53:00
1:53 PM,44.1,21.9,42,30.19,10.0,NNE,4.6,-,N/A,,Partly Cloudy,20,2013-02-25 18:53:00
2:53 PM,44.1,21.0,40,30.17,10.0,Calm,Calm,-,N/A,,Scattered Clouds,0,2013-02-25 19:53:00
3:53 PM,45.0,19.9,37,30.17,10.0,Calm,Calm,-,N/A,,Clear,0,2013-02-25 20:53:00
4:53 PM,45.0,19.9,37,30.17,10.0,ENE,3.5,-,N/A,,Clear,60,2013-02-25 21:53:00
5:53 PM,39.0,23.0,53,30.19,10.0,Calm,Calm,-,N/A,,Clear,0,2013-02-25 22:53:00
6:53 PM,30.0,24.1,79,30.21,10.0,Calm,Calm,-,N/A,,Clear,0,2013-02-25 23:53:00
7:53 PM,28.0,21.9,78,30.22,10.0,Calm,Calm,-,N/A,,Clear,0,2013-02-26 00:53:00
8:53 PM,27.0,21.9,81,30.22,10.0,Calm,Calm,-,N/A,,Clear,0,2013-02-26 01:53:00
10:53 PM,26.1,21.9,84,30.23,10.0,Calm,Calm,-,N/A,,Clear,0,2013-02-26 03:53:00
11:53 PM,24.1,21.0,88,30.23,8.0,Calm,Calm,-,N/A,,Clear,0,2013-02-26 04:53:00